Home   Weather   Quispamsis   Past weeks

Flag for Canada Past Weather in Quispamsis, New Brunswick, Canada — Yesterday and Last 2 Weeks

Now
61 °F

Fog.


Feels Like: 61 °F
Forecast: N/A
Wind: 9 mph from Southwest

Location: Saint John

Current Time: Aug 31, 2016 at 8:46:19 PM

Latest Report: Aug 31, 2016 at 8:00 PM


Visibility: 0 mi

Pressure: 29.83 "Hg

Humidity: 100%

Dew Point: 61 °F

Location of QuispamsisLocation

Past Weather in Quispamsis — Graph

°F

Quispamsis Temperature Yesterday

Maximum temperature yesterday: 75 °F (at 2:00 PM)
Minimum temperature yesterday: 52 °F (at 4:00 AM)
Average temperature yesterday: 63 °F

High & Low Weather Summary for the Past Weeks

 TemperatureHumidityPressure
High81 °F (Aug 18, 1:00 PM)100% (Aug 17, 3:00 AM)30.33 "Hg (Aug 17, 3:00 AM)
Low46 °F (Aug 28, 3:00 AM)39% (Aug 23, 2:00 PM)29.71 "Hg (Aug 22, 5:00 PM)
Average63 °F86%29.99 "Hg
* Reported Aug 16 7:00 PM — Aug 31 7:00 PM, Quispamsis, Weather by CustomWeather, © 2016

Note: Actual official high and low records may vary slightly from our data, if they occured in-between our weather recording intervals... More about our weather records

Advertising

Quispamsis Weather History for the Previous 24 Hours

Scroll right to see more
 ConditionsComfort  
Time TempWeatherWind HumidityBarometerVisibility
7:00 PM
Wed, Aug 31
61 °FFog.8 mph100%29.83 "Hg1 mi
6:00 PM63 °FFog.9 mph100%29.82 "Hg1 mi
5:00 PM63 °FFog.13 mph100%29.84 "Hg1 mi
4:00 PM63 °FFog.13 mph100%29.85 "Hg1 mi
3:00 PM66 °FPartly sunny.16 mph88%29.86 "Hg15 mi
2:00 PM66 °FPartly sunny.12 mph88%29.87 "Hg15 mi
1:00 PM66 °FPartly sunny.12 mph83%29.88 "Hg15 mi
12:50 PM66 °FMostly cloudy.9 mph83%29.88 "Hg15 mi
12:00 PM64 °FLow clouds.9 mph94%29.90 "Hg15 mi
11:00 AM63 °FMostly cloudy.9 mph100%29.92 "Hg15 mi
10:52 AM63 °FMostly cloudy.8 mph100%29.92 "Hg15 mi
10:00 AM63 °FMostly cloudy.10 mph88%29.93 "Hg15 mi
9:00 AM61 °FPartly sunny.8 mph94%29.93 "Hg15 mi
8:00 AM57 °FPassing clouds.3 mph100%29.93 "Hg15 mi
7:00 AM54 °FPartly cloudy.6 mph100%29.94 "Hg15 mi
6:00 AM54 °FPassing clouds.6 mph100%29.94 "Hg15 mi
5:00 AM52 °FPassing clouds.5 mph100%29.95 "Hg15 mi
4:00 AM50 °FPassing clouds.No wind100%29.95 "Hg15 mi
3:00 AM57 °FOvercast.No wind100%29.96 "Hg15 mi
2:00 AM57 °FOvercast.5 mph100%29.97 "Hg15 mi
1:00 AM59 °FMostly cloudy.No wind100%29.97 "Hg15 mi
12:00 AM59 °FMostly cloudy.2 mph100%29.99 "Hg15 mi
11:00 PM
Tue, Aug 30
59 °FOvercast.2 mph94%29.99 "Hg15 mi
10:00 PM61 °FOvercast.6 mph88%30.00 "Hg15 mi
9:00 PM63 °FBroken clouds.2 mph83%30.00 "Hg15 mi
8:00 PM63 °FPartly sunny.5 mph77%29.99 "Hg15 mi
Weather by CustomWeather, © 2016

See weather overviewHow to use our weather pages